User: anonymous   Login
Location: Unspecified
(0.0000°N, 0.0000°E)
Time: 09:10:55
(UTC+00:00)
Language:

Kosmos-648 - Orbit

View from above orbital plane
View from above orbital plane
View from above satellite
View from above satellite

Ground track
Ground track

The orbit data is extracted from the following two-line orbital elements,

1 07272U 74024H   22176.82205181 -.00000020  00000-0 -27296-4 0  9994
2 07272  74.0193  64.5965 0033106 348.4984  78.7620 12.50342340198868
Epoch (UTC): 25 June 2022 19:43:45
Eccentricity: 0.0033106
inclination: 74.0193°
perigee height: 1437 km
apogee height: 1489 km
right ascension of ascending node: 64.5965°
argument of perigee: 348.4984°
revolutions per day: 12.50342340
mean anomaly at epoch: 78.7620°
orbit number at epoch: 19886

The dashed part of the orbit path shows where the satellite is in the earth's shadow,  

DLR